DW0465 Weather Reports


time (UTC)temp
C
wind
direction
speed
KPH
gust
KPH
rain 1hr
cm
rain 24hr
cm
rain mn
cm
humidity
%
barometer
mb
20260508191509 16 167 0.0 6.4 0.00 0.91 0.05 47 1009.9
20260508190005 16 110 0.0 4.8 0.00 0.91 0.05 47 1010.3
20260508184502 15 111 0.0 4.8 0.00 0.91 0.05 51 1010.6
20260508183103 15 118 0.0 11.3 0.00 0.91 0.05 48 1010.7
20260508181557 15 169 0.0 6.4 0.00 0.91 0.05 52 1011.0
20260508180053 15 132 0.0 3.2 0.00 0.91 0.05 42 1011.0
20260508174550 15 144 0.0 1.6 0.00 0.91 0.05 47 1011.2
20260508173047 15 144 0.0 4.8 0.00 0.91 0.05 46 1011.4
20260508171551 15 130 0.0 1.6 0.00 0.91 0.05 47 1011.4
20260508170040 14 157 0.0 6.4 0.00 0.91 0.05 51 1011.4
20260508164539 14 140 0.0 1.6 0.00 0.91 0.05 51 1011.6
20260508163035 14 111 0.0 4.8 0.00 0.91 0.05 49 1011.7
20260508161532 13 124 0.0 1.6 0.00 0.91 0.05 49 1011.7
20260508160032 13 173 0.0 1.6 0.00 0.91 0.05 53 1011.9
20260508154527 12 232 0.0 0.0 0.00 0.91 0.05 63 1011.9
20260508153019 11 207 0.0 0.0 0.00 0.91 0.05 67 1012.1
20260508151515 10 215 0.0 1.6 0.00 0.91 0.05 69 1012.2
20260508150011 10 207 0.0 6.4 0.00 0.91 0.05 71 1012.5
20260508144506 9 188 0.0 1.6 0.00 0.91 0.05 74 1012.6
20260508143001 8 189 0.0 3.2 0.00 0.91 0.05 76 1012.7
20260508141557 7 174 0.0 0.0 0.00 0.91 0.05 80 1012.8
20260508140052 6 212 0.0 0.0 0.00 0.91 0.05 82 1012.9
20260508134548 6 199 0.0 1.6 0.00 0.91 0.05 83 1012.8
20260508133043 5 196 0.0 3.2 0.00 0.91 0.05 85 1012.8
20260508131540 4 195 0.0 0.0 0.00 0.91 0.05 88 1012.6
20260508130053 3 198 0.0 0.0 0.03 0.91 0.05 89 1012.6
20260508124533 3 187 0.0 0.0 0.03 0.91 0.05 89 1012.4
20260508123031 3 178 0.0 0.0 0.03 0.91 0.05 90 1012.3
20260508121530 3 202 0.0 0.0 0.03 0.91 0.05 89 1012.2
20260508120027 3 192 0.0 0.0 0.00 0.89 0.03 89 1012.2
20260508114527 3 201 0.0 0.0 0.00 0.89 0.03 90 1012.3
20260508113027 3 200 0.0 0.0 0.00 0.89 0.03 90 1012.3
20260508111526 3 205 0.0 0.0 0.00 0.89 0.03 90 1012.3
20260508110025 3 198 0.0 0.0 0.00 0.89 0.03 90 1012.1
20260508104535 3 203 0.0 0.0 0.00 0.89 0.03 90 1012.1
20260508103033 3 178 0.0 1.6 0.00 0.89 0.03 90 1011.9
20260508101522 3 173 0.0 0.0 0.00 0.89 0.03 91 1011.9
20260508100020 3 208 0.0 0.0 0.00 0.89 0.03 91 1011.9
20260508094519 3 196 0.0 0.0 0.00 0.89 0.03 90 1011.8
20260508093018 3 199 0.0 0.0 0.00 0.89 0.03 91 1011.8
20260508091517 3 201 0.0 0.0 0.00 0.89 0.03 91 1011.8
20260508090017 3 201 0.0 0.0 0.00 0.89 0.03 90 1011.8
20260508084512 4 201 0.0 0.0 0.00 0.89 0.03 90 1011.8
20260508083011 4 215 0.0 0.0 0.00 0.89 0.03 90 1011.8
20260508081508 5 215 0.0 0.0 0.00 0.89 0.03 90 1011.9
20260508080007 5 202 0.0 0.0 0.00 0.89 0.03 90 1011.8
20260508074505 5 212 0.0 0.0 0.00 0.89 0.03 90 1012.0
20260508073003 5 180 0.0 0.0 0.00 0.89 0.03 90 1011.9
20260508071501 5 189 0.0 0.0 0.00 0.89 0.03 90 1012.0
20260508070143 6 198 0.0 0.0 0.03 0.89 0.03 90 1012.0
20260508064613 6 224 0.0 0.0 0.08 0.89 0.03 90 1012.1
20260508063056 6 190 0.0 0.0 0.08 0.89 0.03 91 1012.2
20260508061600 6 196 0.0 0.0 0.08 0.89 0.03 91 1012.4
20260508060052 6 202 0.0 0.0 0.05 0.86 0.00 90 1012.6
20260508054551 6 204 0.0 0.0 0.05 0.81 0.81 90 1012.7
20260508053102 6 204 0.0 1.6 0.08 0.81 0.81 90 1012.4
20260508051552 6 221 0.0 0.0 0.15 0.81 0.81 90 1012.4
20260508050050 7 248 0.0 0.0 0.15 0.81 0.81 90 1012.7
20260508044548 7 178 0.0 0.0 0.13 0.76 0.76 90 1012.1
20260508043059 7 234 0.0 0.0 0.10 0.71 0.71 90 1012.5
20260508041547 7 234 0.0 0.0 0.03 0.66 0.66 90 1012.7
20260508040044 7 211 0.0 0.0 0.03 0.64 0.64 90 1012.1
20260508034543 7 138 0.0 0.0 0.13 0.64 0.64 90 1011.5
20260508033044 7 138 0.0 0.0 0.13 0.64 0.64 90 1011.3
20260508031550 7 65 0.0 0.0 0.13 0.64 0.64 90 1011.4
20260508030050 7 64 0.0 0.0 0.10 0.61 0.61 90 1011.2
20260508024541 7 62 0.0 0.0 0.00 0.51 0.51 89 1010.8
20260508023044 7 62 0.0 0.0 0.10 0.51 0.51 88 1010.6
20260508021538 7 35 0.0 0.0 0.10 0.51 0.51 88 1010.1
20260508020037 7 360 0.0 0.0 0.10 0.51 0.51 88 1009.7
20260508014537 8 46 0.0 8.0 0.10 0.51 0.51 82 1009.6
20260508013037 10 76 0.0 0.0 0.00 0.41 0.41 70 1008.8
20260508011536 10 84 0.0 1.6 0.00 0.41 0.41 71 1009.0
20260508010036 11 56 0.0 1.6 0.00 0.41 0.41 71 1008.8
20260508004533 11 63 0.0 1.6 0.00 0.41 0.41 71 1008.3
20260508003032 11 111 0.0 1.6 0.00 0.41 0.41 71 1007.9
20260508001533 11 94 0.0 6.4 0.00 0.41 0.41 74 1007.9
20260508000032 11 57 0.0 3.2 0.00 0.41 0.41 74 1007.7
20260507234537 12 57 0.0 0.0 0.00 0.41 0.41 69 1008.1
20260507233031 11 53 0.0 3.2 0.00 0.41 0.41 72 1008.0
20260507231530 11 123 0.0 1.6 0.00 0.41 0.41 71 1007.8
20260507230030 11 63 0.0 0.0 0.03 0.41 0.41 74 1008.1
20260507224530 10 28 0.0 0.0 0.10 0.41 0.41 75 1008.4
20260507223029 10 30 0.0 4.8 0.13 0.41 0.41 74 1008.3
20260507221530 10 90 0.0 3.2 0.13 0.41 0.41 83 1007.9
20260507220026 8 50 0.0 4.8 0.10 0.38 0.38 82 1008.6
20260507214524 10 33 0.0 3.2 0.03 0.30 0.30 74 1008.5
20260507213028 12 28 0.0 1.6 0.00 0.28 0.28 65 1008.1
20260507211522 12 54 0.0 6.4 0.00 0.28 0.28 65 1007.9
20260507210020 12 61 0.0 1.6 0.00 0.28 0.28 65 1008.1
20260507204518 12 30 0.0 1.6 0.28 0.28 0.28 64 1008.3
20260507203018 11 63 0.0 0.0 0.28 0.28 0.28 68 1008.4
20260507201516 10 113 0.0 0.0 0.28 0.28 0.28 74 1008.2
20260507200014 9 87 0.0 0.0 0.28 0.28 0.28 79 1008.8
20260507194513 12 360 0.0 6.4 0.00 0.00 0.00 56 1008.8
20260507193012 13 121 0.0 0.0 0.00 0.00 0.00 51 1008.3